Regional Weather Roundup
Issued by NWS Upton, NY

Current Version | Previous Version | Text Only | Print | Product List | Glossary On
Versions: 1 2 3 4 5 6 7 8 9 10 11 12 13 14 15 16 17 18 19 20 21 22 23 24 25 26 27 28 29 30 31 32 33 34 35 36 37 38 39 40 41 42 43 44 45 46 47
000
ASUS41 KOKX 221505
RWROKX

REGIONAL WEATHER ROUNDUP
NATIONAL WEATHER SERVICE NEW YORK NY
1000 AM EST MON DEC 22 2014

NOTE: "FAIR" INDICATES FEW OR NO CLOUDS BELOW 12,000 FEET WITH NO
SIGNIFICANT WEATHER AND/OR OBSTRUCTIONS TO VISIBILITY.

NYZ071-072-176-178-NJZ106-104-221600-
NEW YORK CITY METRO AREA


CITY           SKY/WX    TMP DP  RH WIND       PRES   REMARKS
CENTRAL PARK   CLOUDY    38  33  82 NE8       30.34F WCI  32
LAGUARDIA APRT CLOUDY    40  35  83 NE13      30.32F WCI  32
KENNEDY INTL   CLOUDY    41  35  79 N8        30.33F
NEWARK/LIBERTY CLOUDY    38  33  82 N7        30.33R WCI  33
BRNX BOT. GARD   N/A     37  34  87 E2        30.33F
TETERBORO      CLOUDY    38  32  79 N6        30.32F WCI  33
$$

NYZ177-179-078>081-221600-
LONG ISLAND NEW YORK

CITY           SKY/WX    TMP DP  RH WIND       PRES   REMARKS
FARMINGDALE    PTSUNNY   42  37  82 NE10      30.32R
ISLIP          CLOUDY    41  37  86 NE9       30.31S
SHIRLEY        CLOUDY    41  38  89 VRB5      30.33S
WESTHAMPTON    CLOUDY    42  39  89 NE6       30.34R
MONTAUK POINT    N/A     43  38  82 NE10G20   30.34F
$$

NYZ052-065-067-221600-
HUDSON VALLEY

CITY           SKY/WX    TMP DP  RH WIND       PRES   REMARKS
WHITE PLAINS   CLOUDY    37  33  85 E7        30.31S WCI  32
NEWBURGH       CLOUDY    32  30  93 VRB5      30.34R FOG     WCI  27
MONTGOMERY     CLOUDY    32  29  88 N6        30.33S WCI  26
POUGHKEEPSIE   CLOUDY    34  29  82 NW3       30.35R HAZE
ALBANY         FLURRIES  31  24  75 N5        30.37R WCI  26
$$

NJZ001-105-106-008-010-013-015-019>022-104-221600-
NEW JERSEY

CITY           SKY/WX    TMP DP  RH WIND       PRES   REMARKS
NEWARK/LIBERTY CLOUDY    38  33  82 N7        30.33R WCI  33
TETERBORO      CLOUDY    38  32  79 N6        30.32F WCI  33
CALDWELL       CLOUDY    36  31  82 NE3       30.33S
MORRISTOWN     CLOUDY    37  32  81 CALM      30.33S
SOMERVILLE     CLOUDY    37  32  82 VRB3      30.32R
SUSSEX         CLOUDY    32  29  88 NE6       30.32S FOG     WCI  26
ANDOVER          N/A     32  29  88 NE3       30.31F
TRENTON        PTSUNNY   38  31  76 E6        30.32R WCI  33
MILLVILLE      PTSUNNY   33  30  88 CALM      30.31S
ATLANTIC CITY  MOSUNNY   33  29  85 N5        30.31S WCI  29
WRIGHTSTOWN    SUNNY     40  34  78 N6        30.30R
TOMS RIVER     MOSUNNY   39  36  87 NE7       30.32R WCI  34
BELMAR         CLOUDY    37  30  75 N5        30.31S WCI  34
$$

PAZ047>061-062-071-221600-
EASTERN PENNSYLVANIA

CITY           SKY/WX    TMP DP  RH WIND       PRES   REMARKS
PHILADELPHIA   MOSUNNY   39  31  72 NE7       30.32S WCI  34
ALLENTOWN      CLOUDY    36  28  75 E5        30.32R WCI  32
SCRANTON       CLOUDY    35  26  69 S12G17    30.28R WCI  27
$$

CTZ002-004>006-009-010-012-RIZ004-006-007-MAZ004-011-015-221600-
SOUTHERN NEW ENGLAND
 IN CT

CITY           SKY/WX    TMP DP  RH WIND       PRES   REMARKS
BRADLEY INTL   PTSUNNY   37  31  78 N5        30.36R WCI  33
HARTFORD       CLOUDY    36  31  82 N6        30.37R WCI  31
DANBURY        CLOUDY    35  31  85 E5        30.34R WCI  31
WTRBRY/OXFORD  CLOUDY    34  27  75 E8        30.34R WCI  27
BRIDGEPORT     CLOUDY    38  35  89 NE10      30.35R WCI  31
MERIDEN        CLOUDY    37  31  78 N7        30.36S WCI  32
NEW HAVEN      CLOUDY    41  35  79 N7        30.35R
CHESTER        CLOUDY    37  34  87 NE3       30.34S
GROTON         CLOUDY    42  35  76 E13       30.34S
WILLIMANTIC    CLOUDY    39  32  76 NE5       30.36S

 IN RI

CITY           SKY/WX    TMP DP  RH WIND       PRES   REMARKS
PROVIDENCE     PTSUNNY   39  32  76 N9        30.38R WCI  33
BLOCK ISLAND   CLOUDY    39  36  87 NE12G17   30.34F WCI  32
WESTERLY       SUNNY     41  34  76 NE8       30.36S

 IN MA

CITY           SKY/WX    TMP DP  RH WIND       PRES   REMARKS
BOSTON         PTSUNNY   38  32  79 N9        30.40S WCI  31
WORCESTER      CLOUDY    31  28  89 NE6       30.35S WCI  25
WESTFIELD      CLOUDY    35  31  85 N6        30.36S WCI  30
PROVINCETOWN   PTSUNNY   46  37  71 E9        30.38S
NANTUCKET      MOSUNNY   47  40  76 E13       30.35R
$$

ANZ330-335-338-340-345-350-353-355-221600-
COASTAL MARINE OBSERVATIONS


STATION/POSITION TIME  SKY/WX   TEMP    WIND        PRES    VSBY  WAVE
                                AIR SEA DIR/SP/G                  HT/PER
                 (UTC)          (F)     (DEG/KT/KT) (MB)    (MI)  (FT/S)
NY HARB ENTRANCE 1500            41 46   20/ 12/ 14 1026.6          2/ 5
4S FIRE IS       1500               47                N/A           3/ 5
20S FIRE ISLAND  1400            49 49              1025.6          3/ 5
23SW MTP         1500                                 N/A           4/ 5
HUDSON CANYON    1500            47 55   60/  4/  8 1025.7          3/ 8
EXECUTION ROCKS  1500            39 41   50/ 16/ 19   N/A
WESTERN LI SOUND 1500            39      60/ 12/ 17   N/A           1/ 3
CENTRAL LI SOUND 1400            39 44   70/ 12/ 14   N/A           1/ 2
EASTERN LI SOUND NOT AVBL
ROBBINS REEF     1500            37     310/  5/  6 1025.6
$$


>>>>>>>>>>>>>>>>>>>>>>>>>>>> KEY <<<<<<<<<<<<<<<<<<<<<<<<<<<
>                                                          <
>     SKY/WX - SKY CONDITION/PRESENT WEATHER               <
>     TMP    - TEMPERATURE IN FAHRENHEIT                   <
>     DP     - DEWPOINT IN FAHRENHEIT                      <
>     RH     - RELATIVE HUMIDITY IN PERCENT                <
>     WIND   - DIRECTION AND SPEED IN MPH                  <
>     PRES   - MEAN SEA LEVEL PRESSURE IN INCHES OF HG     <
>     WCI    - WIND CHILL INDEX                            <
>     VSB    - VISIBILITY IN MILES                         <
>     HX     - HEAT INDEX                                  <
>     TC     - TEMPERATURE IN CELSIUS                      <
>     VRB    - VARIABLE WIND DIRECTION                     <
>                                                          <
>>>>>>>>>>>>>>>>>>>>>>>>>>>> KEY <<<<<<<<<<<<<<<<<<<<<<<<<<<




USA.gov is the U.S. government's official web portal to all federal, state and local government web resources and services.